This demonstration page uses our WeatherBlox Daily Observations layout. Learn more.

Left ArrowRight Arrow

53.62937, 11.41316

Hourly Observations for July 2, 2018

Temp ( °F °C ) Dew Point ( °F °C ) Humidity (%) Winds ( mph kmh ) Pressure ( in mb ) Visibility ( mi km ) Precip ( " mm )
6:50 am 06:50 Mostly Sunny 52 11 48 9 88 88 SW 2 4 30.12 1020 7 11 N/A
7:20 am 07:20 Mostly Sunny 57 14 48 9 72 72 VRB 1 2 30.12 1020 7 11 N/A
7:50 am 07:50 Mostly Sunny 59 15 48 9 68 68 VRB 1 2 30.12 1020 7 11 N/A
8:20 am 08:20 Mostly Sunny 63 17 46 8 56 56 VRB 2 4 30.12 1020 7 11 N/A
8:50 am 08:50 Mostly Sunny 66 19 46 8 49 49 VRB 2 4 30.12 1020 7 11 N/A
9:20 am 09:20 Mostly Sunny 66 19 39 4 37 37 VRB 3 6 30.12 1020 7 11 N/A
9:50 am 09:50 Mostly Sunny 68 20 39 4 35 35 WSW 5 7 30.12 1020 7 11 N/A
10:20 am 10:20 Mostly Sunny 68 20 39 4 35 35 VRB 5 7 30.12 1020 7 11 N/A
10:50 am 10:50 Mostly Sunny 70 21 43 6 38 38 W 5 7 30.12 1020 7 11 N/A
11:20 am 11:20 Mostly Sunny 72 22 43 6 36 36 WSW 5 7 30.09 1019 7 11 N/A
11:50 am 11:50 Mostly Sunny 72 22 43 6 36 36 VRB 5 7 30.09 1019 7 11 N/A
12:20 pm 12:20 Mostly Sunny 73 23 45 7 36 36 VRB 5 7 30.09 1019 7 11 N/A
12:50 pm 12:50 Mostly Sunny 73 23 43 6 33 33 VRB 3 6 30.09 1019 7 11 N/A
1:20 pm 13:20 Mostly Sunny 73 23 41 5 31 31 WSW 6 9 30.09 1019 7 11 N/A
1:50 pm 13:50 Mostly Sunny 73 23 41 5 31 31 W 5 7 30.09 1019 7 11 N/A
2:20 pm 14:20 Mostly Sunny 77 25 45 7 32 32 VRB 3 6 30.06 1018 7 11 N/A
2:50 pm 14:50 Mostly Sunny 75 24 41 5 29 29 VRB 5 7 30.06 1018 7 11 N/A
3:20 pm 15:20 Mostly Sunny 75 24 43 6 31 31 VRB 3 6 30.06 1018 7 11 N/A
3:50 pm 15:50 Mostly Sunny 77 25 41 5 28 28 VRB 5 7 30.06 1018 7 11 N/A
4:20 pm 16:20 Mostly Sunny 75 24 39 4 27 27 VRB 3 6 30.06 1018 7 11 N/A
4:50 pm 16:50 Mostly Sunny 75 24 39 4 27 27 VRB 6 9 30.06 1018 7 11 N/A
5:20 pm 17:20 Mostly Sunny 75 24 37 3 25 25 VRB 5 7 30.06 1018 7 11 N/A
5:50 pm 17:50 Mostly Sunny 75 24 37 3 25 25 VRB 6 9 30.03 1017 7 11 N/A
6:20 pm 18:20 Mostly Sunny 75 24 43 6 31 31 NNE 7 11 30.06 1018 7 11 N/A
6:50 pm 18:50 Mostly Sunny 73 23 43 6 33 33 VRB 6 9 30.03 1017 7 11 N/A
7:20 pm 19:20 Mostly Sunny 73 23 43 6 33 33 NNE 6 9 30.03 1017 7 11 N/A
7:50 pm 19:50 Mostly Sunny 72 22 41 5 33 33 NNE 5 7 30.03 1017 7 11 N/A
8:20 pm 20:20 Mostly Sunny 72 22 43 6 36 36 NNE 3 6 30.03 1017 7 11 N/A
8:50 pm 20:50 Mostly Sunny 70 21 43 6 38 38 NNE 2 4 30.03 1017 7 11 N/A

Powered by AerisWeather